WetterOnline ( https://www.wetteronline.at )

Wetter aktuell Fürstenzell

Aktuelles Wetter: Fürstenzell (480m)

6-stündlich | Neueste Meldungen
Ortszeit Temperatur Wetter
Do, 24.10. 2:00 9.9° C Nebel
Mi, 23.10. 20:00 14.1° C wolkig
Mi, 23.10. 14:00 17.0° C leicht bewölkt
Mi, 23.10. 8:00 11.5° C bedeckt
Mi, 23.10. 2:00 10.6° C Nebel
Di, 22.10. 20:00 10.9° C Nebel
Di, 22.10. 14:00 11.6° C Nebel
Di, 22.10. 8:00 9.5° C Nebel
Ortszeit Temperatur Wetter
Do, 24.10. 4:30 8.7° C Nebel
Do, 24.10. 4:20 8.7° C Nebel
Do, 24.10. 4:10 9.0° C Nebel
Do, 24.10. 4:00 9.2° C bedeckt
Do, 24.10. 3:50 9.2° C Nebel
Do, 24.10. 3:40 9.3° C Nebel
Do, 24.10. 3:30 9.3° C Nebel
Do, 24.10. 3:00 9.8° C Nebel
Do, 24.10. 2:30 10.2° C Nebel
Do, 24.10. 2:00 9.9° C Nebel
Do, 24.10. 1:30 10.3° C Nebel
Ortszeit Relative Feuchte Sichtweite
Do, 24.10. 2:00 100% <100 m
Mi, 23.10. 20:00 94% 3.1 km
Mi, 23.10. 14:00 78% 7 km
Mi, 23.10. 8:00 100% 1.7 km
Mi, 23.10. 2:00 100% 0.2 km
Di, 22.10. 20:00 100% <100 m
Di, 22.10. 14:00 99% 0.6 km
Di, 22.10. 8:00 100% <100 m
Ortszeit Relative Feuchte Sichtweite
Do, 24.10. 4:30 100% <100 m
Do, 24.10. 4:20 100% -
Do, 24.10. 4:10 100% -
Do, 24.10. 4:00 100% -
Do, 24.10. 3:50 100% -
Do, 24.10. 3:40 100% -
Do, 24.10. 3:30 100% <100 m
Do, 24.10. 3:00 100% <100 m
Do, 24.10. 2:30 100% <100 m
Do, 24.10. 2:00 100% <100 m
Do, 24.10. 1:30 100% <100 m
Ortszeit Niederschlagsmenge Niederschlagsart
Do, 24.10. 2:00 0.1 l/m2 in 6 Std. -
Mi, 23.10. 20:00 0.0 l/m2 in 12 Std. -
Mi, 23.10. 14:00 0.0 l/m2 in 6 Std. -
Mi, 23.10. 8:00 0.2 l/m2 in 12 Std. Sprühregen
Mi, 23.10. 2:00 0.1 l/m2 in 6 Std. -
Di, 22.10. 20:00 0.1 l/m2 in 12 Std. -
Di, 22.10. 14:00 0.1 l/m2 in 6 Std. -
Di, 22.10. 8:00 0.2 l/m2 in 12 Std. -
Ortszeit Niederschlagsmenge Niederschlagsart
Do, 24.10. 4:30 0.1 l/m2 in 1 Std. -
Do, 24.10. 4:20 keine Meldung -
Do, 24.10. 4:10 keine Meldung -
Do, 24.10. 4:00 0.1 l/m2 in 1 Std. -
Do, 24.10. 3:50 keine Meldung -
Do, 24.10. 3:40 keine Meldung -
Do, 24.10. 3:30 0.1 l/m2 in 1 Std. -
Do, 24.10. 3:00 0.1 l/m2 in 1 Std. -
Do, 24.10. 2:30 0.1 l/m2 in 1 Std. -
Do, 24.10. 2:00 0.1 l/m2 in 1 Std. -
Do, 24.10. 1:30 0.0 l/m2 in 1 Std. -
Ortszeit Stärke Spitze Richtung
km/h Bft. km/h Grad Sektor
Do, 24.10. 2:00 4 1 14 140° SO
Mi, 23.10. 20:00 7 2 14 210° SW
Mi, 23.10. 14:00 7 2 18 150° SO
Mi, 23.10. 8:00 9 2 11 40° NO
Mi, 23.10. 2:00 0 0 11 - -
Di, 22.10. 20:00 4 1 11 10° N
Di, 22.10. 14:00 6 1 13 270° W
Di, 22.10. 8:00 6 1 11 60° NO
Ortszeit Stärke Spitze Richtung
km/h Bft. km/h Grad Sektor
Do, 24.10. 4:30 4 1 11 60° NO
Do, 24.10. 4:20 4 1 - 60° NO
Do, 24.10. 4:10 6 1 - 50° NO
Do, 24.10. 4:00 6 1 9 40° NO
Do, 24.10. 3:50 6 1 - 40° NO
Do, 24.10. 3:40 4 1 - 30° NO
Do, 24.10. 3:30 2 1 4 70° O
Do, 24.10. 3:00 4 1 11 60° NO
Do, 24.10. 2:30 4 1 11 170° S
Do, 24.10. 2:00 4 1 7 140° SO
Do, 24.10. 1:30 4 1 7 100° O
Ortszeit Untergrenze Bedeckung Gattung
total tief tief mittel hoch
Do, 24.10. 2:00 <30 m 8/8 0/8 - - -
Mi, 23.10. 20:00 10500 m 7/8 0/8 - - -
Mi, 23.10. 14:00 10500 m 6/8 0/8 - - -
Mi, 23.10. 8:00 300 m 8/8 8/8 - - -
Mi, 23.10. 2:00 <30 m 8/8 0/8 - - -
Di, 22.10. 20:00 <30 m 8/8 0/8 - - -
Di, 22.10. 14:00 <30 m 8/8 0/8 - - -
Di, 22.10. 8:00 <30 m 8/8 0/8 - - -
Ortszeit Bedeckungsgrad in Achtel und Wolkenuntergrenze
Do, 24.10. 4:30 8(<30m) 8(8400m)
Do, 24.10. 4:20 8(<30m) 8(8400m)
Do, 24.10. 4:10 8(<30m)
Do, 24.10. 4:00 8(<30m)
Do, 24.10. 3:50 8(<30m)
Do, 24.10. 3:40 8(<30m)
Do, 24.10. 3:30 8(<30m)
Do, 24.10. 3:00 8(<30m)
Do, 24.10. 2:30 8(<30m)
Do, 24.10. 2:00 8(<30m)
Do, 24.10. 1:30 8(<30m)
Ortszeit Luftdruck NN (hPa) Tendenz (hPa in 3 Std.)
Do, 24.10. 2:00 1013 - 1,3
Mi, 23.10. 20:00 1014 - 0,2
Mi, 23.10. 14:00 1016 - 1,9
Mi, 23.10. 8:00 1020 - 1,1
Mi, 23.10. 2:00 1022 - 0,6
Di, 22.10. 20:00 1024 + 0,4
Di, 22.10. 14:00 1024 - 0,3
Di, 22.10. 8:00 1024 + 0,8
Ortszeit Luftdruck NN (hPa) Tendenz (hPa in 3 Std.)
Do, 24.10. 4:30 1013 - 0,9
Do, 24.10. 4:20 1013 keine Meldung
Do, 24.10. 4:10 1013 keine Meldung
Do, 24.10. 4:00 1012 - 1,3
Do, 24.10. 3:50 1012 keine Meldung
Do, 24.10. 3:40 1013 keine Meldung
Do, 24.10. 3:30 1013 - 1,1
Do, 24.10. 3:00 1013 - 1,3
Do, 24.10. 2:30 1013 - 1,3
Do, 24.10. 2:00 1013 - 1,3
Do, 24.10. 1:30 1013 - 1,4
Ortszeit Schneehöhe (cm)
Do, 24.10. 2:00 0
Mi, 23.10. 20:00 0
Mi, 23.10. 14:00 0
Mi, 23.10. 8:00 0
Mi, 23.10. 2:00 0
Di, 22.10. 20:00 0
Di, 22.10. 14:00 0
Di, 22.10. 8:00 0
Ortszeit Schneehöhe (cm)
Do, 24.10. 4:30 0
Do, 24.10. 4:20 0
Do, 24.10. 4:10 0
Do, 24.10. 4:00 0
Do, 24.10. 3:50 0
Do, 24.10. 3:40 0
Do, 24.10. 3:30 0
Do, 24.10. 3:00 0
Do, 24.10. 2:30 0
Do, 24.10. 2:00 0
Do, 24.10. 1:30 0
Link zu dieser Seite / Seite empfehlen

Das Wetter in ...